Location: Cactus School
(34.5700°N, 118.0931°W)
Time: 08:26:58
(UTC-07:00)

S-56A Canister/Altair - Pass Details

Date: 18 April 2024
Orbit: 638 x 2488 km, 38.9° (Epoch: 29 May)

Event Time Altitude Azimuth Distance (km) Brightness Sun altitude
Rises 20:51:14 0° 283° (WNW) 3,725 12.6 -16.9°
Reaches altitude 10° 20:53:31 10° 286° (WNW) 2,962 11.8 -17.4°
Maximum altitude 21:00:56 70° 10° (N) 1,541 9.0 -18.7°
Enters shadow 21:08:59 21° 90° (E) 3,406 10.3 -20.1°
Drops below altitude 10° 21:12:23 10° 93° (E) 4,438 - -20.7°
Sets 21:16:33 0° 96° (E) 5,680 - -21.5°
